Weather History for Richmond Hanover County, VA

Change the Weather History Date:

Wednesday, July 17, 2013

  Actual Average Record
Temperature  
Mean Temperature 83 °F -  
Max Temperature 93 °F 87 °F 99 °F (1977)
Min Temperature 73 °F 66 °F 54 °F (1954)
Cooling Degree Days 18    
Growing Degree Days 33 (Base 50)    
Moisture  
Dew Point 73 °F    
Average Humidity 79    
Maximum Humidity 100    
Minimum Humidity 49    
Precipitation  
Precipitation 0.00 in - - ()
Sea Level Pressure  
Sea Level Pressure 30.19 in    
Wind  
Wind Speed 1 mph (North)    
Max Wind Speed 6 mph    
Max Gust Speed -    
Visibility 6 miles    
Events      
Averages and records for this station are not official NWS values.
T = Trace of Precipitation, MM = Missing Value Source: NWS Daily Summary

Daily Weather History Graph

Daily Weather History Graph

Search for Another Location

Airport:

Trip Planner

Search our weather history database for the weather conditions in past years. The results will help you decide how hot, cold, wet, or windy it might be!

Date:

Astronomy

Jul. 17, 2013 Rise Set
Actual Time 6:01 AM EDT 8:29 PM EDT
Civil Twilight 5:31 AM EDT 9:00 PM EDT
Nautical Twilight 4:53 AM EDT 9:37 PM EDT
Astronomical Twilight 4:12 AM EDT 10:18 PM EDT
Moon 3:18 PM EDT (7/17) 1:05 AM EDT (7/17)
Length of Visible Light 15h 28m
Length of Day
14h 28m
Waxing Gibbous, 67% of the Moon is Illuminated
Jul 17
Waxing Gibbous
Jul 22
Full
Jul 29
Last Quarter
Aug 6
New
Aug 14
First Quarter

Hourly Weather History & Observations

Time (EDT) Temp. Heat Index Dew Point Humidity Pressure Visibility Wind Dir Wind Speed Gust Speed Precip Events Conditions
12:54 AM 73.0 °F - 72.0 °F 96% 30.20 in 8.0 mi Calm Calm - N/A   Clear
1:54 AM 73.0 °F - 72.0 °F 96% 30.19 in 7.0 mi Calm Calm - N/A   Clear
2:54 AM 73.9 °F - 72.0 °F 93% 30.19 in 8.0 mi Calm Calm - N/A   Clear
3:54 AM 73.9 °F - 72.0 °F 93% 30.20 in 5.0 mi Calm Calm - N/A   Clear
4:54 AM 73.0 °F - 72.0 °F 96% 30.20 in 6.0 mi Calm Calm - N/A   Clear
5:54 AM 73.0 °F - 72.0 °F 96% 30.21 in 3.0 mi Calm Calm - N/A   Mostly Cloudy
6:43 AM 73.4 °F - 71.6 °F 94% 30.22 in 2.0 mi Calm Calm - N/A   Clear
6:50 AM 73.4 °F - 71.6 °F 94% 30.22 in 1.8 mi Calm Calm - N/A   Clear
6:54 AM 73.0 °F - 72.0 °F 96% 30.22 in 2.0 mi Calm Calm - N/A   Clear
7:05 AM 73.4 °F - 73.4 °F 100% 30.23 in 3.0 mi Calm Calm - N/A   Clear
7:54 AM 79.0 °F - 75.0 °F 88% 30.23 in 5.0 mi North 3.5 mph - N/A   Clear
8:54 AM 84.0 °F 90.2 °F 73.0 °F 69% 30.22 in 7.0 mi Calm Calm - N/A   Clear
9:54 AM 88.0 °F 95.6 °F 73.0 °F 61% 30.22 in 8.0 mi Calm Calm - N/A   Clear
10:54 AM 89.1 °F 97.0 °F 73.0 °F 59% 30.22 in 9.0 mi Variable 3.5 mph - N/A   Clear
11:54 AM 90.0 °F 99.0 °F 73.9 °F 59% 30.22 in 8.0 mi Variable 3.5 mph - N/A   Scattered Clouds
12:54 PM 91.0 °F 99.3 °F 73.0 °F 55% 30.21 in 8.0 mi WNW 5.8 mph - N/A   Partly Cloudy
1:54 PM 91.9 °F 98.4 °F 71.1 °F 50% 30.19 in 9.0 mi Calm Calm - N/A   Partly Cloudy
2:54 PM 93.0 °F 100.1 °F 71.1 °F 49% 30.17 in 9.0 mi Calm Calm - N/A   Partly Cloudy
3:54 PM 91.9 °F 100.7 °F 73.0 °F 54% 30.15 in 9.0 mi Calm Calm - N/A   Partly Cloudy
4:54 PM 91.9 °F 98.4 °F 71.1 °F 50% 30.14 in 9.0 mi ENE 3.5 mph - N/A   Partly Cloudy
5:54 PM 89.1 °F 97.0 °F 73.0 °F 59% 30.13 in 8.0 mi Calm Calm - N/A   Clear
6:54 PM 84.0 °F 94.8 °F 78.1 °F 82% 30.12 in 6.0 mi Calm Calm - N/A   Haze
7:54 PM 82.9 °F 90.8 °F 75.9 °F 79% 30.13 in 6.0 mi Calm Calm - N/A   Haze
8:54 PM 80.1 °F 85.8 °F 77.0 °F 90% 30.14 in 6.0 mi Calm Calm - N/A   Clear
9:54 PM 78.1 °F - 75.9 °F 93% 30.14 in 4.0 mi Calm Calm - N/A   Clear
10:54 PM 77.0 °F - 75.9 °F 96% 30.15 in 3.0 mi Calm Calm - N/A   Clear
11:54 PM 77.0 °F - 75.9 °F 96% 30.15 in 3.0 mi Calm Calm - N/A   Clear